Weather History for Pardubice, Czech Republic

Change the Weather History Date:

Tuesday, February 12, 2013

  Actual Average Record
Temperature  
Mean Temperature 27 °F -  
Max Temperature 28 °F - - ()
Min Temperature 26 °F - - ()
Degree Days  
Heating Degree Days 38    
Moisture  
Dew Point 25 °F    
Average Humidity 88    
Maximum Humidity 100    
Minimum Humidity 69    
Precipitation  
Precipitation 0.00 in - - ()
Sea Level Pressure  
Sea Level Pressure 29.79 in    
Wind  
Wind Speed 7 mph ()    
Max Wind Speed 13 mph    
Max Gust Speed -    
Visibility 2.5 miles    
Events Fog , Snow    
T = Trace of Precipitation, MM = Missing Value Source: Averaged Metar Reports

Daily Weather History Graph

Daily Weather History Graph

Search for Another Location

Airport:

Trip Planner

Search our weather history database for the weather conditions in past years. The results will help you decide how hot, cold, wet, or windy it might be!

Date:

Astronomy

Feb. 12, 2013 Rise Set
Actual Time 7:12 AM CET 5:10 PM CET
Civil Twilight 6:39 AM CET 5:44 PM CET
Nautical Twilight 6:01 AM CET 6:22 PM CET
Astronomical Twilight 5:23 AM CET 6:59 PM CET
Moon 7:41 AM CET (2/12) 8:14 PM CET (2/12)
Length of Visible Light 11h 04m
Length of Day
9h 57m
Waxing Crescent, 6% of the Moon is Illuminated
Feb 12
Waxing Crescent
Feb 17
First Quarter
Feb 25
Full
Mar 4
Last Quarter
Mar 11
New

Hourly Weather History & Observations

Time (CET) Temp. Windchill Dew Point Humidity Pressure Visibility Wind Dir Wind Speed Gust Speed Precip Events Conditions
12:00 AM 28.4 °F 19.7 °F 19.4 °F 69% 29.77 in 6.2 mi East 9.2 mph - N/A   Overcast
1:00 AM 28.4 °F 19.1 °F 19.4 °F 69% 29.77 in 6.2 mi East 10.4 mph - N/A   Overcast
2:00 AM 28.4 °F 19.1 °F 19.4 °F 69% 29.77 in 6.2 mi East 10.4 mph - N/A   Overcast
3:00 AM 28.4 °F 18.5 °F 19.4 °F 69% 29.77 in 6.2 mi East 11.5 mph - N/A   Overcast
4:00 AM 28.4 °F 18.0 °F 19.4 °F 69% 29.74 in 6.2 mi ESE 12.7 mph - N/A   Overcast
5:00 AM 28.4 °F 18.0 °F 19.4 °F 69% 29.74 in 6.2 mi East 12.7 mph - N/A   Overcast
6:00 AM 28.4 °F 18.5 °F 21.2 °F 74% 29.74 in 6.2 mi East 11.5 mph - N/A   Overcast
7:00 AM 28.4 °F 19.7 °F 21.2 °F 74% 29.77 in 6.2 mi East 9.2 mph - N/A   Overcast
7:44 AM 28.4 °F 19.1 °F 21.2 °F 74% 29.77 in 1.9 mi East 10.4 mph - N/A Snow Light Snow
7:51 AM 28.4 °F 19.1 °F 23.0 °F 80% 29.77 in 0.9 mi East 10.4 mph - N/A Snow Light Snow
8:00 AM 26.6 °F 16.2 °F 23.0 °F 86% 29.77 in 0.9 mi East 11.5 mph - N/A Snow Light Snow
8:45 AM 26.6 °F 17.5 °F 24.8 °F 93% 29.77 in 0.4 mi East 9.2 mph - N/A Snow Light Snow
9:00 AM 26.6 °F 16.8 °F 24.8 °F 93% 29.77 in 0.4 mi East 10.4 mph - N/A Snow Light Snow
9:46 AM 26.6 °F 19.1 °F 24.8 °F 93% 29.80 in 1.2 mi ENE 6.9 mph - N/A Snow Light Snow
10:00 AM 26.6 °F 19.1 °F 24.8 °F 93% 29.80 in 1.2 mi ENE 6.9 mph - N/A Snow Light Snow
10:43 AM 26.6 °F 20.0 °F 26.6 °F 100% 29.80 in 0.5 mi ENE 5.8 mph - N/A Snow Light Snow
11:00 AM 28.4 °F 21.2 °F 26.6 °F 93% 29.80 in 0.5 mi ENE 6.9 mph - N/A Snow Light Snow
12:00 PM 28.4 °F 20.4 °F 26.6 °F 93% 29.77 in 0.5 mi ENE 8.1 mph - N/A Snow Light Snow
1:00 PM 28.4 °F 21.2 °F 26.6 °F 93% 29.77 in 0.7 mi ENE 6.9 mph - N/A Snow Light Snow
2:00 PM 28.4 °F 22.2 °F 28.4 °F 100% 29.77 in 1.6 mi ENE 5.8 mph - N/A Snow Light Snow
2:23 PM 28.4 °F 24.6 °F 28.4 °F 100% 29.77 in 2.8 mi NE 3.5 mph - N/A Snow Light Snow
3:00 PM 28.4 °F 22.2 °F 28.4 °F 100% 29.77 in 3.1 mi NE 5.8 mph - N/A   Overcast
4:00 PM 28.4 °F 24.6 °F 28.4 °F 100% 29.80 in 2.2 mi NE 3.5 mph - N/A Snow Light Snow
4:27 PM 28.4 °F 23.3 °F 28.4 °F 100% 29.80 in 1.9 mi NE 4.6 mph - N/A Snow Light Snow
5:00 PM 28.4 °F 24.6 °F 28.4 °F 100% 29.80 in 1.9 mi NE 3.5 mph - N/A Snow Light Snow
6:00 PM 28.4 °F - 26.6 °F 93% 29.83 in 1.9 mi Variable 2.3 mph - N/A Snow Light Snow
7:00 PM 28.4 °F - 26.6 °F 93% 29.83 in 2.2 mi Calm Calm - N/A Snow Light Snow
8:00 PM 28.4 °F - 26.6 °F 93% 29.86 in 2.2 mi Calm Calm - N/A   Overcast
8:25 PM 28.4 °F - 28.4 °F 100% 29.86 in 0.9 mi Calm Calm - N/A   Overcast
9:00 PM 28.4 °F - 28.4 °F 100% 29.86 in 0.6 mi Calm Calm - N/A   Overcast
10:00 PM 28.4 °F - 28.4 °F 100% 29.86 in 0.6 mi Calm Calm - N/A Fog Light Freezing Fog
11:00 PM 28.4 °F - 28.4 °F 100% 29.89 in 0.6 mi West 2.3 mph - N/A Snow Light Snow